Location: ?
(35.4214°N, 139.3011°E)
Time: 21:51:43
(UTC+00:00)

ATLAS 2AS CENTAUR R/B - Pass Details

Date: 14 July 2020
Orbit: 930 x 1282 km, 63.7° (Epoch: 19 July)

Event Time Altitude Azimuth Distance (km) Brightness Sun altitude
Rises 10:36:01 0° 336° (NNW) 4,160 6.9 -7.4°
Reaches altitude 10° 10:39:35 10° 350° (N) 3,141 5.8 -8.0°
Maximum altitude 10:45:24 24° 41° (NE) 2,191 4.3 -9.0°
Drops below altitude 10° 10:50:51 10° 93° (E) 2,932 4.5 -9.9°
Enters shadow 10:51:36 - 97° (E) 3,125 4.6 -10.0°
